Probability
25 20 14 6 1 0 0 0 0 0 0 0 0 0 0 0 0 0 0 0 0 0 0 0 0 0 0 0 0 0 0 0 0 0 0 0 0 0 0 0 0 0 0
27 21 15 9 2 0 0 0 0 0 0 0 0 0 0 0 0 0 0 0 0 0 0 0 0 0 0 0 0 0 0 0 0 0 0 0 0 0 0 0 0 0 0
22 19 16 12 5 2 1 0 0 0 0 0 0 0 0 0 0 0 0 0 0 0 0 0 0 0 0 0 0 0 0 0 0 0 0 0 0 0 0 0 0 0 0
16 15 16 15 9 5 2 1 1 1 0 0 0 0 0 0 0 0 0 0 0 0 0 0 0 0 0 0 0 0 0 0 0 0 0 0 0 0 0 0 0 0 0
14 15 17 16 12 7 5 4 4 2 1 0 0 0 0 0 0 0 0 0 0 0 0 0 0 0 0 0 0 0 0 0 0 0 0 0 0 0 0 0 0 0 0
21 21 20 18 13 9 7 7 6 4 1 0 0 0 0 0 0 0 0 0 0 0 0 0 0 0 0 0 0 0 0 0 0 0 0 0 0 0 0 0 0 0 0
31 28 25 22 15 10 10 9 7 4 2 1 0 0 0 0 0 0 0 0 0 0 0 0 0 0 0 0 0 0 0 0 0 0 0 0 0 0 0 0 0 0 0
39 34 29 24 18 12 12 11 7 5 3 1 0 0 0 0 0 0 0 0 0 0 0 0 0 0 0 0 0 0 0 0 0 0 1 1 1 0 0 0 0 0 0
46 38 29 22 16 11 10 9 7 5 4 3 2 0 0 0 0 0 0 0 0 0 0 0 0 0 0 0 0 0 0 0 1 0 1 3 2 0 0 0 0 0 0
52 43 32 22 14 8 7 8 8 6 5 6 5 2 1 0 0 0 0 1 1 0 0 0 0 0 0 0 0 0 0 0 0 1 4 9 8 3 1 0 0 0 0
58 49 37 27 16 7 7 10 10 7 8 9 9 6 3 2 2 2 5 8 6 3 1 1 1 1 0 0 0 0 0 0 0 2 12 23 19 9 3 1 1 0 0
60 52 42 34 25 17 16 18 14 14 18 17 15 15 11 9 10 13 19 22 16 9 5 4 6 5 3 3 4 3 2 0 0 4 22 38 33 18 10 6 4 1 0
59 55 49 46 42 36 33 30 25 28 32 28 27 28 25 23 26 32 38 36 27 19 15 15 16 14 9 7 10 10 5 2 1 8 29 47 44 31 21 16 12 7 4
60 58 57 57 56 53 48 42 37 40 42 40 40 41 37 35 39 45 46 42 35 30 26 26 26 20 14 13 15 16 13 8 6 13 32 48 48 39 32 28 24 17 11
59 59 59 58 57 56 53 47 43 43 43 44 45 45 41 39 41 43 41 37 32 30 29 28 26 21 16 15 16 19 20 16 12 17 33 48 49 43 41 38 34 26 20
53 55 54 53 53 52 50 45 39 37 37 38 38 38 36 34 35 36 34 29 25 25 26 24 21 20 17 15 15 18 20 20 19 22 33 45 48 45 46 46 42 36 32
53 53 50 47 48 48 44 37 31 29 28 28 27 26 24 23 26 28 27 25 23 23 25 23 20 21 22 20 19 17 17 20 23 26 33 41 45 45 46 48 50 47 45
55 54 46 40 40 39 34 27 22 20 19 18 17 17 15 14 15 17 18 20 21 21 22 21 21 24 26 25 22 16 13 18 23 27 30 37 43 45 45 47 49 50 49
50 46 40 32 29 27 22 16 14 12 10 9 10 11 10 7 7 8 10 12 14 14 14 15 18 22 23 21 16 12 11 16 21 23 24 30 38 44 46 45 45 45 44
39 36 31 25 20 16 12 9 8 8 6 5 5 7 7 5 4 4 4 5 6 7 7 9 12 15 16 15 11 9 11 13 17 20 21 23 29 37 42 45 46 44 43
32 29 25 20 14 10 8 7 8 7 5 3 2 4 6 5 5 4 3 4 4 4 5 6 6 8 10 11 9 8 7 9 12 17 21 23 23 28 32 37 42 46 46
26 22 19 16 12 8 7 8 8 6 4 3 4 4 5 6 6 5 5 5 5 6 5 4 4 4 5 7 7 4 3 5 7 11 18 21 21 22 22 23 30 38 41
15 13 12 13 11 8 6 7 6 5 4 5 6 7 7 6 7 7 6 5 5 6 5 5 4 3 2 3 3 2 1 2 3 6 10 13 16 18 15 13 16 25 29
5 7 12 15 14 10 7 7 7 7 7 8 10 11 10 8 6 5 4 3 4 4 3 3 3 1 1 1 1 1 0 0 1 2 4 6 10 13 12 9 10 16 22
3 7 15 22 22 18 13 11 11 11 10 10 11 12 12 8 4 3 2 3 3 3 2 1 1 0 0 0 0 0 0 0 0 0 1 2 4 7 8 8 7 11 16
4 9 18 26 28 24 17 14 14 13 12 11 12 12 10 5 2 2 2 3 3 3 2 1 0 0 0 0 0 0 0 0 0 0 0 0 1 3 5 6 6 9 12
Wind_Speed
18 18 18 15 13 12 12 12 12 12 12 11 11 11 11 11 12 12 12 11 11 10 10 9 9 9 9 10 10 10 10 10 10 11 12 12 11 10 9 9 11 12 15
21 19 18 15 14 12 12 12 12 12 12 11 11 11 10 10 10 11 10 10 10 10 10 9 9 9 10 9 9 9 8 8 8 9 11 12 11 9 8 8 11 10 14
21 18 17 15 14 13 12 11 12 12 11 11 11 10 10 10 10 10 9 9 9 9 9 9 9 9 9 9 8 8 7 6 6 7 9 8 10 10 11 14 16 14 14
20 17 16 16 15 14 13 12 11 11 11 11 11 10 10 9 9 9 8 8 8 8 8 8 9 8 8 8 7 6 4 3 2 3 4 6 9 12 12 13 14 14 13
19 17 17 17 15 14 13 12 11 11 11 11 10 10 9 9 8 8 7 7 7 7 7 7 8 7 7 7 6 4 1 1 3 6 2 9 9 11 12 12 12 13 13
19 18 17 17 15 14 13 12 11 11 11 10 10 9 9 8 8 7 7 6 6 6 6 7 7 7 6 5 4 2 1 4 6 4 4 9 9 10 11 11 11 12 12
20 18 17 17 15 13 12 11 11 10 10 10 9 9 8 7 7 6 6 6 6 5 6 6 6 6 5 4 3 0 3 6 7 3 5 9 9 11 11 10 10 11 11
20 19 16 16 15 14 12 11 11 10 10 9 9 8 7 7 6 6 5 5 5 5 5 5 6 6 5 4 2 2 4 8 6 2 7 10 13 12 11 10 10 10 10
19 18 15 14 13 12 12 11 10 9 9 8 8 7 6 6 6 6 5 5 5 5 5 5 5 6 6 5 4 4 5 7 8 3 6 9 13 13 11 10 10 10 10
16 16 14 13 11 10 10 10 9 9 9 8 7 7 6 6 7 7 7 7 7 6 6 6 6 6 6 6 6 6 6 7 8 5 4 10 16 14 12 11 10 10 10
13 12 12 12 10 9 10 10 10 9 8 8 7 8 7 5 6 7 8 9 9 8 7 7 7 7 7 8 9 9 7 6 8 3 4 14 16 15 14 12 11 11 11
12 11 10 10 9 8 7 8 7 7 7 5 4 6 5 3 2 3 6 9 10 9 9 9 9 8 8 6 10 10 5 8 7 3 6 18 16 16 15 13 12 12 11
10 9 9 8 5 4 4 5 2 2 4 4 4 4 2 1 1 0 2 4 5 7 5 6 7 6 6 4 3 6 7 6 4 2 8 17 16 16 15 14 13 13 13
9 8 8 8 6 4 3 3 2 2 2 2 2 1 1 0 1 1 1 0 2 2 2 2 2 4 4 4 4 5 6 4 4 1 7 16 16 15 16 15 15 15 14
8 8 8 7 6 4 3 1 2 2 1 2 2 2 2 1 0 1 0 1 2 1 1 2 2 2 3 4 4 5 4 6 6 3 4 13 15 15 15 16 16 16 16
7 8 7 7 6 5 3 2 1 2 2 2 3 2 2 0 0 1 1 1 2 2 2 2 3 3 4 4 5 5 5 6 5 5 4 8 14 15 16 16 16 17 17
8 8 6 7 6 5 4 2 2 2 3 2 2 2 2 0 0 1 1 1 1 2 2 2 4 3 4 5 5 6 5 6 6 5 5 4 7 13 15 16 16 16 17
9 7 5 7 7 6 4 3 2 2 2 1 2 2 2 1 1 1 1 0 1 2 2 2 3 2 2 3 3 4 4 5 7 6 6 5 5 7 13 18 17 17 18
8 7 7 7 6 5 4 2 2 2 1 1 2 3 2 1 2 2 1 1 2 2 2 3 1 1 2 3 4 5 5 6 6 8 8 8 7 7 7 13 19 19 20
8 7 7 6 4 3 3 2 1 2 1 1 2 3 2 1 2 2 2 1 2 2 2 1 2 2 3 4 6 6 4 5 5 6 8 7 7 9 9 9 10 14 20
7 6 6 5 3 2 2 1 1 1 0 1 2 3 2 1 1 1 2 2 2 2 2 3 3 4 4 3 4 4 5 6 6 6 6 5 6 7 8 8 7 7 9
7 6 6 5 3 2 2 1 1 1 1 1 2 3 2 1 1 2 1 2 2 2 3 3 3 2 4 3 2 3 4 4 3 6 5 5 5 4 5 8 7 8 7
7 6 5 5 4 2 2 0 1 1 1 1 1 1 2 1 1 2 2 3 3 4 3 3 3 3 3 4 3 2 3 3 4 3 3 3 3 4 4 4 6 8 9
7 7 7 5 3 2 1 2 2 2 2 2 2 2 1 1 1 2 2 2 2 3 4 5 3 3 3 3 3 3 3 2 2 4 3 2 2 3 4 4 5 5 7
7 7 7 6 4 2 1 2 2 3 3 3 3 3 2 2 3 2 2 1 1 3 4 4 5 4 3 4 4 3 3 3 4 3 4 4 2 2 3 4 3 3 4
7 7 7 7 4 2 1 1 2 3 4 4 4 4 3 2 2 1 1 2 2 3 4 4 4 5 4 5 4 4 4 3 3 3 4 4 4 3 2 2 3 3 3
Wind_Direction
118 125 126 123 123 125 129 132 131 126 122 117 112 108 103 99 97 95 93 91 89 87 84 81 81 81 80 79 78 78 81 83 86 90 90 89 89 87 90 102 108 99 104
120 124 125 122 122 124 127 129 131 129 126 123 120 116 112 108 104 102 99 96 93 89 86 84 83 83 85 86 85 86 90 94 100 108 110 100 89 83 89 97 101 107 110
119 124 125 122 121 122 123 125 129 129 128 127 125 123 120 116 112 109 105 101 97 93 90 88 87 86 88 89 89 91 96 103 118 137 148 119 101 89 92 98 105 111 111
122 130 125 124 122 121 121 122 126 128 129 129 128 128 126 124 120 116 114 110 105 99 95 93 91 90 91 92 91 92 98 114 149 201 197 123 107 99 100 105 111 115 115
123 123 124 128 125 124 123 123 125 127 129 131 131 132 131 129 127 123 121 118 113 105 100 98 96 95 95 95 95 93 74 312 289 270 103 96 97 110 110 113 116 119 119
126 124 127 129 127 127 126 126 128 129 130 131 132 134 135 134 132 131 131 127 121 115 112 111 107 105 105 104 103 92 322 309 298 267 128 112 110 118 118 120 122 123 123
124 124 129 130 129 129 130 131 132 134 135 136 137 140 142 144 146 145 141 134 133 130 127 129 126 124 121 121 123 164 305 305 284 279 108 107 118 125 126 126 126 127 127
123 123 128 132 133 134 135 137 138 140 141 143 146 148 150 152 154 155 153 154 154 150 147 146 146 148 148 152 169 243 291 301 304 314 118 118 132 132 133 133 133 133 134
120 125 135 136 138 139 140 142 142 146 149 152 156 157 161 166 172 176 174 175 171 168 168 168 169 169 172 178 195 233 273 293 297 285 128 129 140 140 142 143 144 145 143
119 128 135 140 143 149 150 152 154 160 163 164 168 172 181 194 201 201 196 189 185 185 189 191 191 190 190 195 206 227 255 281 272 261 133 141 147 148 151 155 156 156 155
115 122 132 137 148 158 157 155 165 173 176 178 183 191 199 211 205 202 217 186 191 194 201 205 208 206 204 208 212 219 235 251 256 253 125 146 154 155 159 164 167 166 165
121 127 130 136 151 161 154 150 179 179 171 192 185 189 205 224 227 205 177 186 199 204 210 213 215 216 217 219 210 212 227 237 256 237 146 155 160 161 166 171 174 175 175
124 126 123 123 115 120 124 150 162 149 148 192 183 184 202 242 263 181 158 184 205 215 221 213 210 223 224 230 196 195 228 248 244 223 156 161 166 168 172 177 181 182 183
124 120 111 112 103 88 85 112 133 122 153 165 143 162 135 97 345 352 13 176 201 210 219 222 214 226 245 255 237 216 227 248 263 209 162 170 172 177 179 183 187 189 189
113 105 102 101 104 105 91 70 86 76 78 99 93 70 57 57 315 292 291 295 279 254 222 235 236 242 247 258 259 250 244 248 262 257 166 178 179 182 187 190 194 196 197
116 105 106 111 107 100 98 90 83 89 79 72 84 78 78 91 196 246 249 252 260 254 229 227 239 233 236 241 249 251 246 249 253 245 195 189 193 191 193 197 199 201 202
112 111 114 112 107 101 92 80 81 90 95 95 108 118 104 83 238 287 257 239 261 266 248 233 247 240 233 236 237 244 241 240 244 245 233 200 197 204 203 203 202 205 206
108 107 105 104 104 101 91 74 62 54 68 88 107 95 72 39 20 314 286 198 313 282 264 247 237 258 261 256 254 254 252 240 237 237 238 226 209 209 210 210 207 207 210
101 101 95 91 101 106 105 104 105 96 71 63 85 84 60 30 29 342 329 31 314 295 287 296 6 322 300 290 271 247 239 243 236 235 231 229 220 216 206 211 211 209 212
107 105 101 99 94 106 111 127 122 123 148 133 103 94 75 41 52 351 302 15 330 311 315 321 317 291 276 273 276 279 257 244 230 231 230 229 221 219 216 216 207 213 215
118 116 112 109 107 96 86 81 87 105 216 144 123 116 114 67 28 303 327 344 304 301 313 314 308 296 279 259 266 281 271 250 231 221 216 223 227 224 216 213 201 201 210
129 125 130 129 128 123 98 78 103 50 292 144 95 119 118 83 355 305 19 316 328 320 290 280 273 279 296 302 290 295 293 280 262 242 213 210 219 221 223 222 212 207 210
144 150 135 128 133 113 93 349 32 33 298 30 55 108 86 36 330 337 326 318 334 318 309 315 306 291 286 293 283 274 286 301 325 295 254 226 213 210 219 222 218 214 216
158 147 130 133 128 114 100 29 351 348 2 8 4 38 27 335 300 289 288 304 315 311 312 309 326 319 299 291 290 268 257 279 293 311 314 285 232 221 222 232 233 221 215
156 145 140 134 128 120 63 43 358 360 357 1 3 2 347 299 269 254 261 279 311 301 312 321 320 312 305 298 300 303 294 274 244 253 284 298 294 258 230 226 226 227 223
159 149 144 138 139 136 124 33 25 4 351 338 330 323 323 313 307 327 341 28 341 323 323 317 310 300 289 293 297 296 293 286 277 264 267 279 280 272 262 241 232 224 226